Вернуться в каталог

USA 466

АктивенВоенныеVLEO
NORAD 62535·PAYLOAD·🇺🇸 United States

Запущен Jan 10, 2025 с Vandenberg Space Force Base

Loading…

Ближайшие Пролёты (ближайшие 24 часа)

TLE

УстаревшееSource: Mike McCants

Эпоха: Aug 27, 2026, 01:10 UTC

1 62535U 25005D   26239.04867314 0.00000000  00000-0  00000-0 0    01
2 62535  70.0140 223.8405 0002000 199.1802 160.8198 14.96713250    02

Отслеживайте USA 466 в реальном времени с AllMySat

Download on the App Store